[[{"header":{"parameterUnit":"m.s-1","parameterCategory":1,"la1":30.2991,"la2":30.254,"lo1":-89.0895,"lo2":-89.0444,"dy":0.0017,"dx":0.0017,"nx":28,"ny":28,"refTime":"2024-03-07T09:00:00:Z","depth":0,"parameterNumber":2,"parameterNumberName":"U-component_of_WINDS"},"data":[0,0,0,0,0,0,0,0,0,0,0,0,0,0,0,0,0,0,0,0,0,0,0,0,0,0,0,0,0,0,0,0,0,0,0,0,0,0,0,0,0,0,0,0,0,0,0,0,0,0,0,0,0,0,0,0,0,0,-3.4955,-3.4956,0,-3.5001,-3.5001,-3.5002,-3.4978,-3.4977,-3.4976,-3.4975,-3.5022,-3.5024,-3.5026,0,0,0,0,0,0,0,0,0,0,0,0,0,-3.485,-3.4852,-3.4955,-3.4956,-3.4956,-3.5001,-3.5002,-3.5002,-3.4979,-3.4977,-3.4976,-3.4974,-3.5021,-3.5024,-3.5027,0,0,0,0,0,0,0,0,0,0,0,0,0,-3.4896,-3.4853,-3.4955,-3.495,-3.495,-3.5001,-3.5002,-3.5002,-3.4979,-3.4977,-3.4975,-3.4974,-3.502,-3.5024,-3.5027,-3.5086,0,0,-3.5038,-3.504,0,0,0,0,0,0,0,0,-3.4893,-3.49,-3.495,-3.495,-3.495,-3.4982,-3.4982,-3.503,-3.4979,-3.4968,-3.4975,-3.4973,-3.501,-3.5014,-3.5027,-3.5088,-3.509,-3.5038,-3.504,-3.5042,-3.5043,0,0,0,0,0,0,0,-3.489,-3.4897,-3.4973,-3.4951,-3.4951,-3.4946,-3.4951,-3.4991,-3.4999,-3.4969,-3.4967,-3.4973,-3.501,-3.5024,-3.5028,-3.509,-3.5038,-3.5041,-3.5044,-3.5045,-3.5204,-3.5206,0,0,0,0,0,0,-3.4887,-3.4895,-3.4972,-3.4975,-3.4917,-3.495,-3.4955,-3.4974,-3.4998,-3.5,-3.4974,-3.4972,-3.5018,-3.5024,-3.5029,-3.51,-3.5042,-3.5045,-3.5047,-3.5202,-3.5205,-3.5207,0,0,0,0,0,0,-3.4885,-3.4894,-3.497,-3.4934,-3.4944,-3.4953,-3.4975,-3.4976,-3.4989,-3.5002,-3.5004,-3.4987,-3.5017,-3.5024,-3.5072,-3.5101,-3.5047,-3.505,-3.52,-3.5203,-3.5206,-3.5242,0,0,0,0,0,0,-3.4882,-3.4893,-3.4914,-3.4935,-3.4946,-3.5011,-3.4977,-3.4978,-3.4995,-3.4992,-3.5014,-3.5016,-3.5016,-3.5067,-3.5076,-3.5105,-3.5053,-3.5197,-3.5201,-3.5205,-3.5238,-3.5246,-3.5252,0,0,0,0,0,-3.4878,-3.4922,-3.4916,-3.4925,-3.4972,-3.5013,-3.5019,-3.5018,-3.4998,-3.502,-3.5029,-3.5016,-3.5098,-3.5072,-3.5082,-3.5113,-3.5195,-3.52,-3.5205,-3.5235,-3.5244,-3.5252,0,0,0,0,0,0,-3.4903,-3.4924,-3.4917,-3.4969,-3.499,-3.5009,-3.5036,-3.5028,-3.5054,-3.5049,-3.5048,-3.5053,-3.5103,-3.5113,-3.5084,-3.5172,-3.5144,-3.515,-3.5163,-3.5172,-3.5179,-3.5175,-3.5056,0,0,0,0,0,-3.4916,-3.4946,-3.4963,-3.5007,-3.5018,-3.5026,-3.5043,-3.5041,-3.5062,-3.507,-3.5083,-3.5104,-3.5134,-3.5154,-3.5183,-3.5241,-3.5246,-3.5267,-3.5275,-3.528,-3.5285,-3.5318,-3.5328,-3.5223,-3.5223,-3.5223,0,0,-3.494,-3.4955,-3.4974,-3.5013,-3.5028,-3.5061,-3.5033,-3.5068,-3.5092,-3.5075,-3.5121,-3.5132,-3.5156,-3.5209,-3.5233,-3.5219,-3.5317,-3.5286,-3.5291,-3.5293,-3.5324,-3.5334,-3.5343,-3.5226,-3.5225,-3.5225,0,0,-3.5,-3.5015,-3.5054,-3.5071,-3.5095,-3.5101,-3.511,-3.5132,-3.5138,-3.5185,-3.5174,-3.5204,-3.5256,-3.5274,-3.529,-3.5363,-3.5351,-3.5373,-3.5409,-3.5441,-3.5449,-3.5457,-3.5483,-3.5492,-3.5378,-3.5378,-3.5378,0,-3.5027,-3.5074,-3.5075,-3.5112,-3.513,-3.5118,-3.5159,-3.5175,-3.5208,-3.5221,-3.5205,-3.5273,-3.5288,-3.5346,-3.5364,-3.5378,-3.539,-3.5368,-3.5448,-3.5456,-3.5462,-3.5487,-3.5497,-3.5381,-3.538,-3.538,-3.538,0,-3.5106,-3.514,-3.5169,-3.5202,-3.5224,-3.5262,-3.527,-3.5292,-3.529,-3.5298,-3.5347,-3.5366,-3.5399,-3.5413,-3.5411,-3.5472,-3.5463,-3.5448,-3.5418,-3.5475,-3.5498,-3.5507,-3.5384,-3.5383,-3.5382,-3.5382,0,0,-3.5179,-3.5215,-3.5225,-3.5241,-3.5269,-3.5296,-3.5336,-3.5369,-3.5388,-3.5413,-3.5446,-3.5493,-3.5481,-3.5499,-3.55,-3.5528,-3.5585,-3.551,-3.5511,-3.5523,-3.5655,-3.5664,-3.5675,-3.558,-3.5582,-3.5583,-3.5653,0,-3.5241,-3.5309,-3.5312,-3.5374,-3.5407,-3.5399,-3.5434,-3.5456,-3.5466,-3.5495,-3.5506,-3.554,-3.5521,-3.5532,-3.556,-3.5572,-3.5612,-3.5568,-3.561,-3.5612,-3.5602,-3.5687,-3.5697,-3.5761,-3.5662,-3.5663,-3.5665,0,-3.532,-3.5348,-3.5413,-3.544,-3.5454,-3.5484,-3.5517,-3.5545,-3.5572,-3.5577,-3.56,-3.5597,-3.5639,-3.5611,-3.567,-3.564,-3.5659,-3.5668,-3.5671,-3.5672,-3.564,-3.569,-3.5782,-3.5791,-3.5679,-3.5678,-3.5677,0,-3.5366,-3.542,-3.5467,-3.5481,-3.5513,-3.5535,-3.555,-3.5574,-3.5595,-3.5624,-3.5638,-3.5672,-3.569,-3.5717,-3.5725,-3.5703,-3.5784,-3.5756,-3.5789,-3.5789,-3.5803,-3.5802,-3.5898,-3.5819,-3.5819,-3.5819,-3.5818,0,-3.5433,-3.5473,-3.5488,-3.5516,-3.5562,-3.5568,-3.5614,-3.5627,-3.565,-3.5682,-3.5679,-3.5709,-3.5717,-3.575,-3.5757,-3.5804,-3.5813,-3.5819,-3.582,-3.5818,-3.5817,-3.5828,-3.5823,-3.5821,-3.5821,-3.582,-3.582,0,-3.5489,-3.5501,-3.5552,-3.558,-3.5588,-3.562,-3.5644,-3.5673,-3.5684,-3.5725,-3.5735,-3.5752,-3.5791,-3.5802,-3.5848,-3.5852,-3.5908,-3.5906,-3.5899,-3.5899,-3.5931,-3.5927,-3.6035,-3.605,-3.5963,-3.5964,-3.5965,0,-3.553,-3.5561,-3.5593,-3.5614,-3.563,-3.5664,-3.5687,-3.5695,-3.5719,-3.5753,-3.5778,-3.5816,-3.5846,-3.5909,-3.5926,-3.5962,-3.5959,-3.5995,-3.5964,-3.5962,-3.5959,-3.5956,-3.5959,-3.6,-3.6001,-3.6001,-3.6002,0,-3.56,-3.5606,-3.5637,-3.5672,-3.5699,-3.5727,-3.5754,-3.5772,-3.5785,-3.5812,-3.5851,-3.5876,-3.5924,-3.5962,-3.6,-3.6016,-3.6011,-3.6012,-3.6022,-3.6019,-3.6013,-3.6016,-3.5913,-3.6009,-3.6008,-3.6008,-3.6007,-3.6007,-3.5649,-3.5677,-3.5705,-3.5741,-3.5763,-3.5789,-3.5818,-3.5834,-3.5867,-3.5907,-3.5911,-3.5954,-3.5983,-3.6033,-3.6052,-3.6087,-3.6076,-3.609,-3.6093,-3.6096,-3.6098,-3.601,-3.6094,-3.6094,-3.6093,-3.6093,-3.6093,0,-3.5719,-3.5737,-3.5771,-3.5809,-3.5839,-3.5834,-3.5865,-3.589,-3.5928,-3.5956,-3.5987,-3.6034,-3.6072,-3.6095,-3.6133,-3.6157,-3.6156,-3.6167,-3.6164,-3.6168,-3.6106,-3.6093,-3.6167,-3.6167,-3.6167,-3.6167,-3.6167,-3.6167,-3.5758,-3.5805,-3.5815,-3.5874,-3.5893,-3.5935,-3.5953,-3.5978,-3.6,-3.6053,-3.6085,-3.61,-3.6126,-3.6168,-3.6203,-3.6209,-3.6223,-3.6235,-3.6239,-3.618,-3.6172,-3.6165,-3.6153,-3.6238,-3.6238,-3.6298,-3.6299,-3.6299]},{"header":{"parameterUnit":"m.s-1","parameterCategory":1,"la1":30.2991,"la2":30.254,"lo1":-89.0895,"lo2":-89.0444,"dy":0.0017,"dx":0.0017,"nx":28,"ny":28,"refTime":"2024-03-07T09:00:00:Z","depth":0,"parameterNumber":3,"parameterNumberName":"V-component_of_WINDS"},"data":[0,0,0,0,0,0,0,0,0,0,0,0,0,0,0,0,0,0,0,0,0,0,0,0,0,0,0,0,0,0,0,0,0,0,0,0,0,0,0,0,0,0,0,0,0,0,0,0,0,0,0,0,0,0,0,0,0,0,2.1407,2.1407,0,2.1446,2.1447,2.1447,2.1528,2.153,2.1531,2.1533,2.1569,2.1568,2.1567,0,0,0,0,0,0,0,0,0,0,0,0,0,2.14,2.1399,2.1407,2.1407,2.1408,2.1446,2.1447,2.1447,2.1528,2.153,2.1532,2.1533,2.1569,2.1568,2.1567,0,0,0,0,0,0,0,0,0,0,0,0,0,2.1417,2.1399,2.1407,2.1453,2.1457,2.1446,2.1447,2.1447,2.1527,2.153,2.1532,2.1534,2.1569,2.1568,2.1567,2.1513,0,0,2.1565,2.1564,0,0,0,0,0,0,0,0,2.1416,2.1417,2.1446,2.145,2.1455,2.1485,2.1457,2.1469,2.1527,2.15,2.1533,2.1536,2.1538,2.154,2.1542,2.1515,2.1516,2.1565,2.1564,2.1564,2.1564,0,0,0,0,0,0,0,2.1415,2.1416,2.1422,2.1446,2.1451,2.1471,2.1476,2.146,2.1505,2.1503,2.1509,2.1513,2.1541,2.1543,2.1544,2.1517,2.1565,2.1564,2.1563,2.1563,2.1449,2.1447,0,0,0,0,0,0,2.1407,2.1414,2.1421,2.1424,2.1441,2.1469,2.1475,2.1472,2.1506,2.1513,2.1511,2.1516,2.1543,2.1544,2.1545,2.1485,2.1564,2.1563,2.1563,2.1452,2.1449,2.1446,0,0,0,0,0,0,2.1407,2.1407,2.142,2.1421,2.1424,2.1466,2.1463,2.1472,2.1474,2.1511,2.152,2.1504,2.1545,2.1546,2.1521,2.1488,2.1563,2.1562,2.1455,2.1451,2.1448,2.1364,0,0,0,0,0,0,2.1406,2.1406,2.1386,2.142,2.1423,2.1395,2.1461,2.1471,2.1472,2.148,2.1507,2.1514,2.1547,2.1522,2.152,2.1488,2.1561,2.1458,2.1453,2.1449,2.137,2.1358,2.1348,0,0,0,0,0,2.1406,2.136,2.1385,2.1385,2.14,2.1393,2.1395,2.1436,2.1469,2.145,2.1474,2.1513,2.1492,2.1519,2.1518,2.1484,2.146,2.1455,2.1449,2.1375,2.136,2.1348,0,0,0,0,0,0,2.132,2.1365,2.1393,2.1357,2.1371,2.1407,2.1383,2.1418,2.1421,2.1429,2.1477,2.1482,2.1451,2.1465,2.1495,2.1435,2.1482,2.1476,2.1427,2.1413,2.1402,2.1399,2.1561,0,0,0,0,0,2.1297,2.1289,2.1329,2.1293,2.1299,2.134,2.1338,2.1369,2.1384,2.139,2.1413,2.1425,2.1422,2.1418,2.1417,2.1373,2.138,2.1349,2.1338,2.1329,2.1323,2.1302,2.1289,2.1428,2.1428,2.1428,0,0,2.1249,2.1273,2.1265,2.1277,2.1291,2.1281,2.1344,2.133,2.1324,2.1387,2.1366,2.1383,2.1401,2.1366,2.1352,2.1377,2.1287,2.1322,2.1314,2.1313,2.1295,2.1282,2.127,2.1424,2.1425,2.1425,0,0,2.1158,2.1174,2.1148,2.1161,2.1183,2.1211,2.1204,2.1235,2.125,2.123,2.1278,2.127,2.1262,2.1274,2.1278,2.1193,2.1229,2.1191,2.1132,2.1112,2.1101,2.1091,2.1062,2.1051,2.1185,2.1185,2.1185,0,2.1095,2.1083,2.1129,2.1114,2.1118,2.1177,2.115,2.1161,2.118,2.1181,2.1209,2.1203,2.1218,2.1188,2.1168,2.1169,2.1164,2.1188,2.1099,2.109,2.1082,2.1054,2.1043,2.118,2.1181,2.1181,2.1182,0,2.1006,2.0997,2.0973,2.0993,2.0994,2.0972,2.1015,2.101,2.1041,2.1066,2.1045,2.1066,2.1071,2.1066,2.1095,2.1041,2.1056,2.109,2.1139,2.1063,2.1038,2.1028,2.1173,2.1175,2.1176,2.1178,0,0,2.086,2.0907,2.0897,2.0908,2.0937,2.0931,2.0912,2.0919,2.0915,2.0926,2.0912,2.0906,2.0939,2.0944,2.0975,2.0956,2.0889,2.0994,2.0995,2.0974,2.0832,2.0806,2.0793,2.0914,2.0912,2.091,2.0831,0,2.0776,2.0748,2.079,2.0753,2.0746,2.0803,2.0787,2.0803,2.0826,2.0823,2.0848,2.0843,2.0887,2.0891,2.0875,2.0901,2.0861,2.0907,2.0901,2.09,2.0895,2.078,2.0752,2.0676,2.0822,2.082,2.0819,0,2.0673,2.0682,2.0644,2.0678,2.0676,2.0661,2.0672,2.0668,2.0688,2.0706,2.0713,2.075,2.0734,2.0782,2.0761,2.0791,2.0791,2.0804,2.0802,2.0803,2.0855,2.0778,2.0653,2.0642,2.0804,2.0805,2.0806,0,2.0571,2.0574,2.0553,2.0559,2.0597,2.0586,2.0601,2.0623,2.0625,2.0634,2.0636,2.0642,2.0645,2.0649,2.0686,2.0717,2.0661,2.0712,2.0676,2.0675,2.0661,2.0661,2.0534,2.066,2.0661,2.0661,2.0661,0,2.0473,2.0448,2.0508,2.0495,2.0469,2.0517,2.0489,2.051,2.053,2.0521,2.0571,2.0561,2.0612,2.0608,2.0638,2.0617,2.0617,2.0632,2.064,2.0627,2.0626,2.0628,2.0634,2.0658,2.0658,2.0659,2.066,0,2.0355,2.0394,2.0375,2.0413,2.0422,2.0402,2.0434,2.0424,2.0451,2.0439,2.044,2.0481,2.048,2.0519,2.0524,2.0544,2.051,2.0527,2.0504,2.0509,2.0472,2.0475,2.0342,2.0327,2.0462,2.046,2.0459,0,2.029,2.0272,2.0309,2.0308,2.0322,2.0318,2.0322,2.0368,2.0369,2.0391,2.0378,2.0381,2.0386,2.038,2.0411,2.0416,2.0434,2.0387,2.0435,2.0423,2.0434,2.0435,2.0434,2.0377,2.0375,2.0374,2.0372,0,2.017,2.0191,2.0194,2.0204,2.0207,2.0216,2.0229,2.0225,2.0276,2.0275,2.0275,2.0279,2.0286,2.0288,2.0299,2.0314,2.0352,2.0357,2.035,2.0337,2.0324,2.0331,2.0477,2.036,2.0361,2.0362,2.0363,2.0363,2.0077,2.0065,2.009,2.0092,2.0107,2.0118,2.0111,2.0138,2.0139,2.015,2.0177,2.0173,2.0194,2.0213,2.0225,2.0222,2.0245,2.0233,2.0231,2.0227,2.022,2.0325,2.0224,2.0224,2.0225,2.0225,2.0225,0,1.9961,1.998,1.9982,1.9999,2.0001,2.0038,2.0055,2.0053,2.005,2.0067,2.0071,2.0072,2.0075,2.0107,2.0113,2.0105,2.0122,2.0105,2.0106,2.0109,2.0199,2.0205,2.0091,2.0091,2.0091,2.0091,2.0091,2.0091,1.99,1.9882,1.9906,1.9896,1.9916,1.9913,1.992,1.9931,1.9945,1.9944,1.9948,1.9969,1.9992,2.0001,2.0006,2.0015,2.0015,1.9992,2.0007,2.009,2.0103,2.0115,2.0122,1.9992,1.9992,1.9918,1.9918,1.9917]}]]